SCP
0 0 0 0 0 0 0 0 0 0 0 0 0 0 0 0 0 0 0 0 0 0 0 1 1 1 1 1 1 1 1 1 1 1 0 0 0 0 0 0 0 0 0 0 0 0 0 0 0
0 0 0 0 0 0 0 0 0 0 0 0 0 0 0 0 0 0 0 0 0 0 0 1 1 1 1 1 1 1 1 1 1 1 1 0 0 0 0 0 0 0 0 0 0 0 0 0 0
0 0 0 0 0 0 0 0 0 0 0 0 0 0 0 0 0 0 0 0 0 0 0 1 1 1 1 1 1 1 1 1 1 1 1 0 0 0 0 0 0 0 0 0 0 0 0 0 0
0 0 0 0 0 0 0 0 0 0 0 0 0 0 0 0 0 0 0 0 0 0 0 0 1 1 1 1 1 1 1 1 1 1 1 1 0 0 0 0 0 0 0 0 0 0 0 0 0
0 0 0 0 0 0 0 0 0 0 0 0 0 0 0 0 0 0 0 0 0 0 0 0 1 1 1 1 1 1 1 1 1 1 1 1 0 0 0 0 0 0 0 0 0 0 0 0 0
0 0 0 0 0 0 0 0 0 0 0 0 0 0 0 0 0 0 0 0 0 0 0 0 0 1 1 1 1 1 1 1 1 1 1 1 0 0 0 0 0 0 0 0 0 0 0 0 0
0 0 0 0 0 0 0 0 0 0 0 0 0 0 0 0 0 0 0 0 0 0 0 0 0 0 1 1 1 1 1 1 1 1 1 1 0 0 0 0 0 0 0 0 0 0 0 0 0
0 0 0 0 0 0 0 0 0 0 0 0 0 0 0 0 0 0 0 0 0 0 0 0 0 0 1 1 1 1 1 1 1 1 1 1 0 0 0 0 0 0 0 0 0 0 0 0 0
0 0 0 0 0 0 0 0 0 0 0 0 0 0 0 0 0 0 0 0 0 0 0 0 0 0 0 1 1 1 0 0 0 0 0 0 0 0 0 0 0 0 0 0 0 0 0 0 0
0 0 0 0 0 0 0 0 0 -0 0 0 0 0 0 0 0 0 0 0 0 0 0 0 0 0 0 0 0 0 0 0 0 0 0 0 0 0 0 0 0 0 0 0 0 0 0 0 0
0 0 0 0 0 0 0 0 0 0 0 0 0 0 0 0 0 0 0 0 0 0 0 0 0 0 0 0 0 0 0 0 0 0 0 0 0 0 0 0 0 0 0 0 0 0 0 0 0
0 0 0 0 0 0 0 0 0 0 0 0 0 0 0 0 0 0 0 0 0 0 0 0 0 0 0 0 0 0 0 0 0 0 0 0 0 0 0 0 0 0 0 0 0 0 0 0 0
0 0 0 0 0 0 0 0 0 0 0 0 0 0 0 0 0 0 0 0 0 0 0 0 0 0 0 0 0 0 0 0 0 0 0 0 0 0 0 0 0 0 0 0 0 0 0 0 0
0 0 0 0 0 0 0 0 0 0 0 0 0 0 0 0 0 0 0 0 0 0 0 0 0 0 0 0 0 0 0 0 0 0 0 0 0 0 0 0 0 0 0 0 0 0 0 0 0
0 0 0 0 0 0 0 0 0 0 0 0 0 0 0 0 0 0 0 0 0 0 0 0 0 0 0 0 0 0 0 0 0 0 0 0 0 0 0 0 0 0 0 0 0 0 0 0 0
0 0 0 0 0 0 0 0 0 0 0 0 0 0 0 0 0 0 0 0 0 0 0 0 0 0 0 0 0 0 0 0 0 0 0 0 0 0 0 0 0 0 0 0 0 0 0 0 0
0 0 0 0 0 0 0 0 0 0 0 0 0 0 0 0 0 0 0 0 0 0 0 0 0 0 0 0 0 0 0 0 0 0 0 0 0 0 0 0 0 0 0 0 0 0 0 0 0
0 0 0 0 0 0 0 0 0 0 0 0 0 0 0 0 0 0 0 0 0 0 0 0 0 0 0 0 0 0 0 0 0 0 0 0 0 0 0 0 0 0 0 0 0 0 0 0 0
0 0 0 0 0 0 0 0 0 0 0 0 0 0 0 0 0 0 0 0 0 0 0 0 0 0 0 0 0 0 0 0 0 0 0 0 0 0 0 0 0 0 0 0 0 0 0 0 0
0 0 0 0 0 0 0 0 0 0 0 0 0 0 0 0 0 0 0 0 0 0 0 0 0 0 0 0 0 0 0 0 0 0 0 0 0 0 0 0 0 0 0 0 0 0 0 0 0
0 0 0 0 0 0 0 0 0 0 0 0 0 0 0 0 0 0 0 0 0 0 0 0 0 0 0 0 0 0 0 0 0 0 0 0 0 0 0 0 0 0 0 0 0 0 0 0 0
0 0 0 0 0 0 0 0 0 0 0 0 0 0 0 0 0 0 0 0 0 0 0 0 0 0 0 0 0 0 0 0 0 0 0 0 0 0 0 0 0 0 0 0 0 0 0 0 0
0 0 0 0 0 0 0 0 0 0 0 0 0 0 0 0 0 0 0 0 0 0 0 0 0 0 0 0 0 0 0 0 0 0 0 0 0 0 0 0 0 0 0 0 0 0 0 0 0
0 0 0 0 0 0 0 0 0 0 0 0 0 0 0 0 0 0 0 0 0 0 0 0 0 0 0 0 0 0 0 0 0 0 0 0 0 0 0 0 0 0 0 0 0 0 0 0 0
0 0 0 0 0 0 0 0 0 0 0 0 0 0 0 0 0 0 0 0 0 0 0 0 0 0 0 0 0 0 0 0 0 0 0 0 0 0 0 0 0 0 0 0 0 0 0 0 0
0 0 0 0 0 0 0 0 0 0 0 0 0 0 0 0 0 0 0 0 0 0 0 0 0 0 0 0 0 0 0 0 0 0 0 0 0 0 0 0 0 0 0 0 0 0 0 0 0
0 0 0 0 0 0 0 0 0 0 0 0 0 0 0 0 0 0 0 0 0 0 0 0 0 0 0 0 0 0 0 0 0 0 0 0 0 0 0 0 0 0 0 0 0 0 0 0 0
0 0 0 0 0 0 0 0 0 0 0 0 0 0 0 0 0 0 0 0 0 0 0 0 0 0 0 0 0 0 0 0 0 0 0 0 0 0 0 0 0 0 0 0 0 0 0 0 0
0 0 0 0 0 0 0 0 0 0 0 0 0 0 0 0 0 0 0 0 0 0 0 0 0 0 0 0 0 0 0 0 0 0 0 0 0 0 0 0 0 0 0 0 0 0 0 0 0
0 0 0 0 0 0 0 0 0 0 0 0 0 0 0 0 0 0 0 0 0 0 0 0 0 0 0 0 0 0 0 0 0 0 0 0 0 0 0 0 0 0 0 0 0 0 0 0 0
Wind_Speed
8 4 2 4 6 4 3 4 2 1 2 1 1 3 5 4 4 3 0 3 4 6 7 9 10 10 10 11 10 10 10 10 11 11 11 11 11 11 11 11 11 11 11 11 12 12 12 12 12
2 2 5 5 5 2 5 4 4 3 2 0 2 2 2 0 0 1 1 1 4 6 6 6 11 10 10 10 10 10 10 10 10 11 11 11 11 11 11 11 11 10 11 11 11 11 11 11 11
2 3 5 5 4 6 5 3 4 1 1 1 1 2 1 1 0 1 1 3 5 5 4 6 10 9 10 10 10 10 10 10 10 11 10 11 11 11 11 11 10 10 10 10 10 10 10 10 11
3 4 5 3 5 6 4 2 2 0 1 2 2 1 1 1 1 2 1 4 5 4 3 5 9 9 9 9 9 10 10 10 10 11 10 10 10 10 10 10 10 10 10 10 10 10 10 9 10
4 4 3 1 5 4 3 2 1 1 1 1 2 1 1 3 2 2 3 5 5 3 3 4 8 8 8 8 8 9 9 10 10 10 10 11 10 10 10 10 10 10 10 10 9 9 9 9 9
5 4 3 5 6 4 3 2 2 1 1 0 2 2 2 2 2 2 3 4 4 4 3 3 6 7 7 7 7 7 8 9 9 10 10 10 10 10 10 10 10 9 9 9 9 9 9 9 9
5 4 4 4 3 4 3 1 2 2 2 2 2 2 2 2 1 2 4 4 3 3 3 2 3 4 6 6 6 6 7 8 9 9 9 9 9 10 10 10 10 9 9 9 9 9 8 9 9
4 5 3 3 4 4 1 0 1 2 2 1 2 3 3 2 1 3 4 4 3 2 2 2 2 3 3 4 5 5 5 6 7 8 8 8 8 9 9 8 8 9 8 8 8 8 8 8 8
3 4 4 5 5 3 0 0 1 1 1 1 0 1 2 2 3 4 3 2 2 1 1 1 2 3 3 3 4 4 4 5 5 6 7 7 4 4 5 6 7 8 8 8 7 7 8 7 7
4 4 6 3 3 2 1 1 1 1 1 1 1 1 2 3 4 5 3 3 3 2 1 1 1 1 3 2 2 2 2 2 3 3 4 3 3 3 4 5 6 7 7 7 7 7 7 5 3
3 5 2 1 1 1 1 1 1 2 2 4 3 2 1 2 3 4 3 3 3 2 1 1 1 1 2 2 2 1 1 2 2 3 3 3 3 3 3 2 3 3 4 3 3 3 3 3 2
2 2 1 1 1 0 1 1 1 2 5 2 2 2 2 2 3 4 4 3 2 2 2 1 1 1 2 2 2 2 2 2 2 2 3 3 3 3 2 2 2 2 2 2 2 2 3 3 2
2 1 1 2 2 1 1 2 2 4 4 2 1 2 2 2 2 2 2 2 1 2 2 2 1 2 1 2 2 2 2 3 3 3 3 4 3 4 3 2 2 2 2 2 3 3 3 3 2
2 1 2 2 2 1 2 3 2 5 2 1 1 1 2 2 3 1 1 2 2 3 3 2 2 2 1 1 2 2 2 2 3 2 3 4 3 4 4 3 3 2 2 3 3 3 3 2 2
1 1 3 2 1 1 0 5 5 4 0 1 2 2 2 2 2 2 3 2 3 3 2 2 2 2 2 1 2 2 2 2 2 2 3 3 4 4 4 3 3 3 3 3 3 2 2 2 2
2 1 2 2 1 1 2 8 3 1 2 3 3 2 2 3 3 3 2 2 2 1 1 1 1 1 2 1 1 1 2 2 2 2 3 3 4 4 4 3 3 3 3 3 3 3 2 2 2
2 1 3 4 1 0 3 7 4 1 1 3 4 3 3 3 3 3 2 1 1 1 1 1 1 1 1 1 1 1 1 2 2 2 2 3 4 4 4 4 3 3 3 3 3 2 2 2 2
3 3 3 4 2 1 3 8 8 4 2 4 4 3 3 3 4 3 2 1 1 0 0 1 1 1 1 1 0 0 0 1 1 2 2 3 3 4 4 4 4 4 3 3 3 3 2 2 2
3 3 4 4 3 2 6 10 10 6 3 4 4 3 3 4 3 2 2 2 1 2 1 0 1 1 1 1 1 1 2 2 1 2 3 3 3 4 4 4 4 4 4 4 4 3 3 2 2
2 2 4 4 3 2 5 10 8 4 4 4 4 4 4 3 3 3 3 3 2 1 1 1 1 1 2 2 2 2 2 2 2 2 2 3 3 4 4 5 4 5 4 4 5 3 2 2 2
2 4 4 4 4 2 4 7 4 3 2 2 2 2 2 2 3 3 2 2 2 2 2 2 2 2 2 2 1 0 0 0 0 1 2 3 3 4 4 4 4 5 5 5 6 5 5 4 3
4 3 3 2 1 3 1 6 6 3 3 3 3 3 3 3 2 2 2 2 2 3 2 2 2 2 1 1 2 2 2 2 3 2 2 3 3 3 4 4 4 5 4 5 6 5 4 4 4
3 0 0 1 2 2 1 3 9 2 4 5 4 4 3 3 3 3 3 3 3 2 2 2 2 2 2 1 2 3 2 3 2 2 2 2 2 3 3 4 4 4 4 4 5 5 5 4 4
2 3 3 3 2 3 5 4 8 3 5 4 4 4 4 4 2 2 2 2 2 2 2 2 2 2 2 1 1 2 3 3 2 2 2 2 2 2 3 4 4 4 4 5 5 5 6 5 5
3 4 3 4 2 6 2 4 10 5 4 4 4 4 4 3 2 2 2 3 3 3 2 2 2 3 3 2 2 2 3 3 3 3 3 3 2 2 3 3 4 4 4 4 4 4 5 5 6
2 4 5 5 5 5 2 7 8 4 3 2 3 3 2 3 3 3 3 3 3 3 3 2 2 3 3 2 2 2 2 2 2 3 3 3 3 3 3 3 3 4 4 5 4 4 4 4 5
3 2 3 4 1 3 6 7 8 2 2 2 2 2 3 4 4 3 3 3 3 3 3 3 3 3 3 3 3 2 2 2 3 3 2 3 3 3 3 3 3 3 4 5 5 4 5 4 4
3 5 4 3 2 5 6 5 5 4 4 3 3 3 4 4 4 4 3 3 3 3 3 3 3 3 4 3 3 3 3 3 3 2 3 3 3 2 2 3 3 3 3 4 4 4 4 4 4
3 2 3 3 3 4 5 8 4 4 4 4 4 4 4 5 5 5 4 4 4 4 3 4 4 4 4 4 3 3 3 3 3 3 3 3 3 3 3 3 3 3 3 3 4 4 4 5 4
3 4 5 4 4 4 3 10 3 3 3 2 4 4 4 4 5 5 4 4 4 4 4 4 4 4 4 4 3 3 3 3 3 3 3 3 3 3 3 3 3 3 3 3 4 4 4 5 5
Wind_Direction
345 355 54 57 56 52 235 239 221 234 228 255 134 134 148 156 166 194 310 133 136 151 162 164 151 149 148 143 138 135 135 133 134 134 134 132 131 129 125 122 117 115 111 107 104 102 100 97 96
349 11 52 63 99 193 254 234 222 216 208 111 49 84 94 129 13 90 77 174 145 150 155 159 153 151 148 145 142 140 140 137 134 135 136 134 133 131 130 127 123 120 116 112 109 106 102 99 96
10 46 83 87 148 195 223 218 214 256 251 130 68 45 117 162 287 208 233 160 139 141 147 159 152 152 149 147 146 146 144 141 140 139 138 138 137 134 131 130 128 125 121 118 114 111 108 103 101
63 50 59 100 216 223 216 221 199 191 16 53 103 46 348 12 276 239 167 139 127 133 141 158 152 154 151 147 150 151 149 148 146 143 142 139 138 137 134 132 130 127 126 124 120 116 113 109 105
59 78 86 225 238 244 241 246 203 189 190 52 109 136 301 345 0 99 123 132 129 132 143 155 153 155 152 150 150 155 154 154 151 147 145 144 140 138 135 135 132 130 131 129 125 122 121 118 111
64 76 128 225 240 252 261 252 179 190 194 87 118 142 256 348 48 85 114 118 119 128 138 146 153 150 149 149 149 153 159 159 155 152 149 144 143 140 141 140 138 135 137 134 130 127 123 120 114
113 121 187 212 234 253 253 229 163 180 198 219 164 136 283 326 45 105 104 101 97 109 126 139 155 158 150 145 145 147 159 161 159 157 153 147 143 145 146 146 145 143 142 139 135 129 123 121 116
125 122 174 211 213 242 260 185 150 175 211 230 133 151 230 256 111 98 93 91 92 101 114 142 148 153 150 154 145 143 151 159 161 157 152 148 146 146 148 149 150 148 145 142 140 134 125 119 114
96 102 205 211 201 235 292 120 339 303 127 63 111 208 248 136 115 104 90 88 110 119 106 118 157 160 154 151 150 147 152 153 159 159 150 142 139 140 142 144 148 149 147 145 142 137 124 112 109
107 177 218 207 196 218 279 238 294 42 14 307 311 345 45 109 128 141 155 167 177 189 198 126 124 175 157 157 149 150 152 148 146 146 150 141 130 134 132 141 148 151 148 146 143 137 118 98 87
153 196 215 231 234 211 245 294 304 165 231 228 218 222 126 131 144 165 182 188 197 192 199 190 157 190 174 161 153 143 136 137 143 143 142 134 129 128 122 129 144 150 143 134 130 120 104 102 100
157 242 228 255 283 206 229 281 303 217 234 252 215 166 148 157 192 193 197 213 215 198 210 220 198 177 190 174 162 155 151 154 157 158 151 145 145 147 147 143 139 135 137 137 131 127 120 116 113
198 247 283 287 307 278 253 251 253 258 265 315 52 107 165 196 228 242 226 211 225 236 233 220 212 179 170 168 170 162 176 176 172 168 169 163 161 166 162 159 152 149 145 148 147 141 139 134 129
202 234 299 310 303 310 258 268 235 260 279 342 352 289 243 231 237 237 253 237 231 233 226 210 192 167 149 170 173 166 180 189 175 176 176 174 173 169 169 168 167 167 164 160 160 160 155 154 153
84 16 326 291 259 277 312 286 233 247 262 297 287 282 286 272 270 246 239 238 239 237 218 198 193 170 164 178 182 166 174 181 186 187 184 182 182 174 174 175 178 179 165 156 149 151 145 150 157
49 47 289 296 211 247 155 260 260 243 184 262 271 271 275 273 269 264 259 257 263 254 222 215 196 181 197 200 207 185 176 178 186 195 189 189 183 175 174 179 189 179 163 164 165 165 162 171 178
39 229 251 294 287 341 193 255 277 278 186 266 278 277 272 280 289 281 276 257 261 249 222 208 181 190 217 223 218 204 185 183 190 189 196 195 188 177 175 185 189 175 169 171 179 171 169 179 190
214 222 249 259 303 332 258 265 284 292 271 271 282 290 289 281 277 290 312 316 322 332 201 190 172 179 194 204 195 200 204 215 197 195 203 194 191 184 179 183 182 176 175 179 179 178 176 180 178
178 206 252 266 293 285 262 272 281 290 289 279 284 289 286 277 294 335 356 349 19 22 18 319 194 221 159 166 195 216 225 227 225 217 203 197 196 190 183 188 183 183 189 192 183 178 180 180 144
181 240 266 290 317 280 276 277 275 266 249 246 256 269 279 300 333 348 0 6 360 348 338 340 267 239 210 206 199 203 217 220 216 223 221 207 199 200 197 191 190 192 190 189 188 174 171 174 164
233 214 233 268 323 333 313 293 267 263 252 276 270 259 269 265 287 314 335 341 344 334 310 304 279 257 240 213 180 113 70 26 265 232 227 229 213 204 203 201 196 195 193 197 194 187 180 187 194
249 228 221 252 322 295 359 289 281 273 293 285 287 290 281 276 273 285 303 319 319 302 299 294 286 282 268 215 179 182 205 218 234 237 235 240 224 216 206 201 199 198 198 198 199 195 189 179 193
213 295 225 236 182 294 267 243 281 299 278 273 271 270 276 275 259 267 275 282 301 307 309 308 323 314 294 243 211 202 224 235 244 244 241 245 238 224 212 209 203 201 204 204 203 200 196 194 196
151 66 47 50 75 270 227 205 275 246 242 266 265 276 287 287 278 276 296 315 316 315 321 336 346 320 310 280 234 219 226 237 242 249 237 243 248 243 227 217 209 207 208 206 207 205 204 206 202
82 88 28 349 326 252 215 219 252 253 246 236 256 276 292 297 300 309 322 325 321 323 328 332 329 317 313 296 271 247 239 236 234 237 230 235 246 246 242 231 218 213 212 210 206 206 208 207 206
183 147 161 208 237 277 261 238 255 262 262 246 250 260 292 306 303 302 302 307 312 316 326 321 309 308 307 293 281 269 251 243 240 242 243 234 238 240 243 236 231 226 216 211 205 209 214 207 208
146 181 160 141 187 274 266 278 293 266 281 290 299 308 308 308 307 308 314 314 311 317 320 308 301 304 302 290 279 276 267 251 248 250 252 247 252 249 236 226 224 229 221 213 204 209 213 207 209
157 149 117 140 188 263 282 266 257 266 262 283 296 300 304 309 312 317 315 312 310 310 310 311 306 298 297 292 280 275 268 250 244 247 256 258 261 259 241 236 227 224 221 215 212 214 209 208 214
143 145 141 143 171 194 271 270 234 229 241 258 272 284 298 309 313 313 314 314 315 316 311 309 312 314 309 298 282 275 274 263 248 244 252 253 255 252 240 235 235 232 227 220 216 215 208 211 217
195 185 160 175 225 200 226 269 280 236 250 261 290 310 314 313 313 314 315 319 319 314 312 310 312 310 300 291 280 276 277 273 263 261 263 262 256 255 251 241 235 239 239 232 220 218 218 218 220